Regional Weather Roundup
Issued by NWS

Home | Current Version | Previous Version | Text Only | Print | Product List | Glossary Off
Versions: 1 2 3 4 5 6 7 8 9 10 11 12 13 14 15 16 17 18 19 20 21 22 23 24 25 26 27 28 29 30 31 32 33 34 35 36 37 38 39 40 41 42 43 44 45 46 47 48 49 50

000
ASUS43 KDTX 190801
RWRMI
MICHIGAN HOURLY REGIONAL WEATHER ROUNDUP
NATIONAL WEATHER SERVICE DETROIT/PONTIAC MI
300 AM EST FRI JAN 19 2018

NOTE: "FAIR" INDICATES FEW OR NO CLOUDS BELOW 12,000 FEET WITH NO
SIGNIFICANT WEATHER AND/OR OBSTRUCTION TO VISIBILITY.

MIZ047>049-052>055-059>063-066>070-074>076-081>083-190900-
SOUTHEAST LOWER MICHIGAN

CITY           SKY/WX    TMP DP  RH WIND       PRES   REMARKS
ADRIAN         FAIR      22  14  71 W9        29.98F WCI  12
ALMA           FAIR      28  25  87 SW6       29.87R WCI  21
ANN ARBOR      FAIR      21  13  71 S9        29.94F WCI  11
BAD AXE        FAIR      24  18  78 SW10      29.87R WCI  14
CARO           FAIR      25  19  77 SW9       29.87S WCI  15
DETROIT CITY   FAIR      24  15  68 SW14      29.94S WCI  12
DETROIT        FAIR      23  15  71 SW13      29.96S WCI  11
FLINT          FAIR      24  16  71 SW8       29.90S WCI  15
GROSSE ILE     FAIR      25  15  68 SW9       29.96S WCI  15
HILLSDALE      FAIR      27  14  59 SW10G18   29.94S WCI  17
HOWELL         FAIR      25  18  74 SW8       29.90S WCI  16

CITY           SKY/WX    TMP DP  RH WIND       PRES   REMARKS
JACKSON        FAIR      25  15  66 SW16      29.92F WCI  12
LAMBERTVILLE   FAIR      25  14  63 SW10G20   29.99S WCI  15
LANSING        FAIR      26  18  71 SW14      29.90S WCI  14
LAPEER         FAIR      26  18  71 W7        29.89S WCI  18
MASON          FAIR      26  15  62 SW10G17   29.91S WCI  17
MONROE         FAIR      24  13  63 SW12      29.97S WCI  13
MT. CLEMENS    FAIR     N/A N/A N/A SW8         N/A
PONTIAC        FAIR      25  17  72 SW12      29.89F WCI  14
PORT HOPE        N/A     26  19  74 SW9       29.85R WCI  17
PORT HURON     FAIR      19  12  73 S7        29.92F WCI  10
TRI CITIES     FAIR      25  21  85 SW12      29.87S WCI  14
MIDLAND        FAIR      23  20  87 CALM      29.87R
TROY           FAIR      24  15  71 SW8       29.94F WCI  14
SAGINAW HB     FAIR      25  19  80 SW9       29.87S WCI  15
$$
MIZ043>046-050>051-056>058-064>065-071>073-077>080-190900-
SOUTHWEST LOWER MICHIGAN

CITY           SKY/WX    TMP DP  RH WIND       PRES   REMARKS
BATTLE CREEK   FAIR      25  16  68 SW12      29.93S WCI  14
BENTON HARBOR  FAIR      26  16  65 S10       29.95S WCI  16
BIG RAPIDS     FAIR      29  22  75 SW7       29.84R WCI  21
COLDWATER      FAIR      24  15  71 SW13      29.96S WCI  12
FREMONT        FAIR      30  20  66 SW9       29.87R WCI  22
HOLLAND        FAIR      32  25  75 SW18G24   29.91S WCI  20
GRAND RAPIDS   FAIR      29  22  75 SW17      29.88S WCI  17
IONIA          FAIR      27  20  75 SW14      29.87S WCI  16
KALAMAZOO      FAIR      26  16  65 SW10      29.93F WCI  16
LUDINGTON      FAIR      31  26  81 SW9       29.84S WCI  23
MARSHALL       FAIR      25  15  66 SW12G20   29.93S WCI  14
MOUNT PLEASANT FAIR      31  23  72 W9        29.85R WCI  23
MUSKEGON       FAIR      34  24  67 SW13      29.90R WCI  25
SOUTH HAVEN    FAIR      32  21  64 SW16G24   29.93S WCI  21
$$
MIZ016>042-190900-
NORTHERN LOWER MICHIGAN

CITY           SKY/WX    TMP DP  RH WIND       PRES   REMARKS
ALPENA         CLOUDY    31  25  78 SW7       29.81R WCI  24
BEAVER ISLAND  FAIR      32  28  85 SW6       29.75F WCI  27
BELLAIRE       FAIR      28  25  91 S5        29.81S WCI  22
CADILLAC       FAIR      21  20  95 SW5       29.80S WCI  15
CHARLEVOIX     FAIR      31  27  86 S5        29.80F WCI  26
FRANKFORT      FAIR      34  26  74 W8        29.81F WCI  27
GAYLORD        FAIR      25  24  96 SW9       29.77S WCI  15
GRAYLING       FAIR      22  20  91 CALM      29.81R
HARBOR SPRINGS CLOUDY    32  27  84 SW7       29.77F WCI  25
HOUGHTON LAKE  FAIR      24  20  84 SW5       29.82R WCI  18
MANISTEE       FAIR      28  24  85 SW5       29.84R WCI  23
OSCODA         CLOUDY    29  22  76 W14       29.83R WCI  18
PELLSTON       CLOUDY    34  28  79 SW8       29.76S WCI  27
ROGERS CITY    CLOUDY    32  26  80 SW6       29.79S WCI  26
TRAVERSE CITY  FAIR      26  22  84 S5        29.80F WCI  20
$$
MIZ007>008-015-190900-
EASTERN UPPER MICHIGAN

CITY           SKY/WX    TMP DP  RH WIND       PRES   REMARKS
KINROSS        CLOUDY    30  26  85 SW3       29.73S
MACKINAC ISLAN CLOUDY    31  28  89 SW5       29.75F WCI  26
NEWBERRY       CLOUDY    28  26  95 CALM      29.71S
S. S. MARIE    CLOUDY    32  25  75 S3        29.72F
MUNISING         N/A     31  26  82 S7        29.69F WCI  24
$$
MIZ004>006-011>014-085-190900-
CENTRAL UPPER MICHIGAN

CITY           SKY/WX    TMP DP  RH WIND       PRES   REMARKS
MANISTIQUE     MOCLDY    28  26  94 S5        29.73S WCI  22
ESCANABA       FAIR      20  18  92 CALM      29.74F
MENOMINEE      FAIR      25  20  81 SW6       29.77F WCI  18
SAWYER-GWINN   FAIR      28  23  81 S9        29.67F WCI  19
$$
MIZ001>003-009>011-084-190900-
WESTERN UPPER MICHIGAN

CITY           SKY/WX    TMP DP  RH WIND       PRES   REMARKS
IRON MOUNTAIN  FAIR      20  17  88 S5        29.68F WCI  13
HOUGHTON       FAIR      29  22  75 SW5       29.63F WCI  24
COPPER HARBOR    N/A     32  26  78 SW6       29.64F WCI  26
IRONWOOD       FAIR      27  22  81 SW7       29.66F WCI  19
$$

ABBREVIATIONS USED IN REMARKS
   TC - TEMPERATURE IN CELSIUS
  WCI - WIND CHILL INDEX
   HX - HEAT INDEX
  VSB - VISIBILITY





USA.gov is the U.S. government's official web portal to all federal, state and local government web resources and services.